Time,TemperatureF,DewpointF,PressureIn,WindDirection,WindDirectionDegrees,WindSpeedMPH,WindSpeedGustMPH,Humidity,HourlyPrecipIn,Conditions,Clouds,dailyrainin,SoftwareType,DateUTC
2013-03-03 00:02:00,24.0,18.0,29.85,NNW,330,5.0,-999.0,79,-99.99,,,-99.99,,2013-03-03 05:02:00,
2013-03-03 00:12:00,24.0,18.0,29.85,NNW,330,5.0,-999.0,79,-99.99,,,-99.99,,2013-03-03 05:12:00,
2013-03-03 00:22:00,24.0,18.0,29.85,North,5,4.0,-999.0,77,-99.99,,,-99.99,,2013-03-03 05:22:00,
2013-03-03 00:32:00,24.0,18.0,29.85,North,355,4.0,-999.0,79,-99.99,,,-99.99,,2013-03-03 05:32:00,
2013-03-03 00:42:00,24.0,18.0,29.85,North,355,4.0,-999.0,79,-99.99,,,-99.99,,2013-03-03 05:42:00,
2013-03-03 00:52:00,24.0,18.0,29.85,North,355,4.0,-999.0,79,-99.99,,,-99.99,,2013-03-03 05:52:00,
2013-03-03 01:02:00,24.0,18.0,29.85,NE,37,4.0,-999.0,79,-99.99,,,-99.99,,2013-03-03 06:02:00,
2013-03-03 01:11:00,24.0,18.0,29.85,NE,37,4.0,-999.0,79,-99.99,,,-99.99,,2013-03-03 06:11:00,
2013-03-03 01:21:00,24.0,19.0,29.85,NNE,15,4.0,-999.0,80,-99.99,,,-99.99,,2013-03-03 06:21:00,
2013-03-03 01:32:00,24.0,19.0,29.85,North,11,4.0,-999.0,81,-99.99,,,-99.99,,2013-03-03 06:32:00,
2013-03-03 01:42:00,24.0,19.0,29.85,North,11,4.0,-999.0,81,-99.99,,,-99.99,,2013-03-03 06:42:00,
2013-03-03 01:52:00,24.0,19.0,29.85,NW,307,4.0,-999.0,82,-99.99,,,-99.99,,2013-03-03 06:52:00,
2013-03-03 02:01:00,23.0,18.0,29.85,NNW,336,4.0,-999.0,82,-99.99,,,-99.99,,2013-03-03 07:01:00,
2013-03-03 02:11:00,23.0,18.0,29.85,NNW,336,4.0,-999.0,82,-99.99,,,-99.99,,2013-03-03 07:11:00,
2013-03-03 02:21:00,23.0,18.0,29.85,North,355,5.0,-999.0,81,-99.99,,,-99.99,,2013-03-03 07:21:00,
2013-03-03 02:32:00,23.0,18.0,29.85,North,355,5.0,-999.0,81,-99.99,,,-99.99,,2013-03-03 07:32:00,
2013-03-03 02:42:00,23.0,18.0,29.85,North,355,5.0,-999.0,81,-99.99,,,-99.99,,2013-03-03 07:42:00,
2013-03-03 02:51:00,23.0,18.0,29.85,NNW,348,4.0,-999.0,81,-99.99,,,-99.99,,2013-03-03 07:51:00,
2013-03-03 03:01:00,23.0,18.0,29.84,NNW,336,3.0,-999.0,81,-99.99,,,-99.99,,2013-03-03 08:01:00,
2013-03-03 03:11:00,23.0,18.0,29.84,NNW,336,3.0,-999.0,81,-99.99,,,-99.99,,2013-03-03 08:11:00,
2013-03-03 03:21:00,23.0,18.0,29.84,NNW,341,5.0,-999.0,81,-99.99,,,-99.99,,2013-03-03 08:21:00,
2013-03-03 03:32:00,23.0,18.0,29.84,NW,311,3.0,-999.0,82,-99.99,,,-99.99,,2013-03-03 08:32:00,
2013-03-03 03:42:00,23.0,18.0,29.84,NW,311,3.0,-999.0,82,-99.99,,,-99.99,,2013-03-03 08:42:00,
2013-03-03 03:53:00,23.0,19.0,29.84,North,355,3.0,-999.0,83,-99.99,,,-99.99,,2013-03-03 08:53:00,
2013-03-03 04:02:00,22.0,18.0,29.84,NNW,331,3.0,-999.0,83,-99.99,,,-99.99,,2013-03-03 09:02:00,
2013-03-03 04:12:00,22.0,18.0,29.84,NNW,331,3.0,-999.0,83,-99.99,,,-99.99,,2013-03-03 09:12:00,
2013-03-03 04:21:00,22.0,18.0,29.84,NNW,331,3.0,-999.0,83,-99.99,,,-99.99,,2013-03-03 09:21:00,
2013-03-03 04:32:00,22.0,17.0,29.84,NNW,336,4.0,-999.0,82,-99.99,,,-99.99,,2013-03-03 09:32:00,
2013-03-03 04:42:00,22.0,17.0,29.84,NNW,336,4.0,-999.0,82,-99.99,,,-99.99,,2013-03-03 09:42:00,
2013-03-03 04:51:00,22.0,18.0,29.84,NW,308,3.0,-999.0,83,-99.99,,,-99.99,,2013-03-03 09:51:00,
2013-03-03 05:01:00,22.0,18.0,29.84,North,355,5.0,-999.0,83,-99.99,,,-99.99,,2013-03-03 10:01:00,
2013-03-03 05:12:00,22.0,18.0,29.84,North,355,5.0,-999.0,83,-99.99,,,-99.99,,2013-03-03 10:12:00,
2013-03-03 05:21:00,22.0,18.0,29.84,NNW,336,2.0,-999.0,84,-99.99,,,-99.99,,2013-03-03 10:21:00,
2013-03-03 05:32:00,22.0,18.0,29.84,NW,323,4.0,-999.0,84,-99.99,,,-99.99,,2013-03-03 10:32:00,
2013-03-03 05:42:00,22.0,18.0,29.84,NW,323,4.0,-999.0,84,-99.99,,,-99.99,,2013-03-03 10:42:00,
2013-03-03 05:52:00,22.0,18.0,29.85,NNW,343,3.0,-999.0,85,-99.99,,,-99.99,,2013-03-03 10:52:00,
2013-03-03 06:01:00,22.0,18.0,29.85,NNW,343,3.0,-999.0,85,-99.99,,,-99.99,,2013-03-03 11:01:00,
2013-03-03 06:11:00,22.0,18.0,29.85,NNW,343,3.0,-999.0,85,-99.99,,,-99.99,,2013-03-03 11:11:00,
2013-03-03 06:22:00,22.0,19.0,29.85,NW,307,2.0,-999.0,87,-99.99,,,-99.99,,2013-03-03 11:22:00,
2013-03-03 06:32:00,22.0,19.0,29.85,NW,314,2.0,-999.0,87,-99.99,,,-99.99,,2013-03-03 11:32:00,
2013-03-03 06:42:00,22.0,19.0,29.85,NW,314,2.0,-999.0,87,-99.99,,,-99.99,,2013-03-03 11:42:00,
2013-03-03 06:52:00,21.0,18.0,29.85,NNW,329,2.0,-999.0,88,-99.99,,,-99.99,,2013-03-03 11:52:00,
2013-03-03 07:02:00,21.0,18.0,29.85,WNW,303,4.0,-999.0,88,-99.99,,,-99.99,,2013-03-03 12:02:00,
2013-03-03 07:11:00,21.0,18.0,29.85,WNW,303,4.0,-999.0,88,-99.99,,,-99.99,,2013-03-03 12:11:00,
2013-03-03 07:22:00,21.0,18.0,29.85,NW,310,3.0,-999.0,89,-99.99,,,-99.99,,2013-03-03 12:22:00,
2013-03-03 07:32:00,21.0,18.0,29.85,WNW,286,3.0,-999.0,89,-99.99,,,-99.99,,2013-03-03 12:32:00,
2013-03-03 07:43:00,21.0,18.0,29.85,WNW,286,3.0,-999.0,89,-99.99,,,-99.99,,2013-03-03 12:43:00,
2013-03-03 07:52:00,21.0,18.0,29.86,NW,321,4.0,-999.0,89,-99.99,,,-99.99,,2013-03-03 12:52:00,
2013-03-03 08:02:00,21.0,18.0,29.86,NW,324,4.0,-999.0,89,-99.99,,,-99.99,,2013-03-03 13:02:00,
2013-03-03 08:11:00,21.0,18.0,29.86,NW,324,4.0,-999.0,89,-99.99,,,-99.99,,2013-03-03 13:11:00,
2013-03-03 08:22:00,21.0,18.0,29.87,NW,319,3.0,-999.0,88,-99.99,,,-99.99,,2013-03-03 13:22:00,
2013-03-03 08:32:00,21.0,18.0,29.87,NNW,339,4.0,-999.0,88,-99.99,,,-99.99,,2013-03-03 13:32:00,
2013-03-03 08:42:00,21.0,18.0,29.87,NNW,339,4.0,-999.0,88,-99.99,,,-99.99,,2013-03-03 13:42:00,
2013-03-03 08:52:00,21.0,18.0,29.87,NNW,338,5.0,-999.0,88,-99.99,,,-99.99,,2013-03-03 13:52:00,
2013-03-03 09:02:00,21.0,18.0,29.87,NW,320,4.0,-999.0,87,-99.99,,,-99.99,,2013-03-03 14:02:00,
2013-03-03 09:11:00,21.0,18.0,29.87,NW,320,4.0,-999.0,87,-99.99,,,-99.99,,2013-03-03 14:11:00,
2013-03-03 09:22:00,21.0,17.0,29.88,NW,314,5.0,-999.0,85,-99.99,,,-99.99,,2013-03-03 14:22:00,
2013-03-03 09:32:00,21.0,17.0,29.87,WNW,284,4.0,-999.0,85,-99.99,,,-99.99,,2013-03-03 14:32:00,
2013-03-03 09:42:00,21.0,17.0,29.87,WNW,284,4.0,-999.0,85,-99.99,,,-99.99,,2013-03-03 14:42:00,
2013-03-03 09:52:00,22.0,18.0,29.87,WNW,290,5.0,-999.0,86,-99.99,,,-99.99,,2013-03-03 14:52:00,
2013-03-03 10:02:00,21.0,17.0,29.87,WNW,293,6.0,-999.0,86,-99.99,,,-99.99,,2013-03-03 15:02:00,
2013-03-03 10:11:00,21.0,17.0,29.87,WNW,293,6.0,-999.0,86,-99.99,,,-99.99,,2013-03-03 15:11:00,
2013-03-03 10:22:00,22.0,18.0,29.87,WSW,257,5.0,-999.0,86,-99.99,,,-99.99,,2013-03-03 15:22:00,
2013-03-03 10:32:00,22.0,18.0,29.87,WNW,288,4.0,-999.0,85,-99.99,,,-99.99,,2013-03-03 15:32:00,
2013-03-03 10:42:00,22.0,18.0,29.87,WNW,288,4.0,-999.0,85,-99.99,,,-99.99,,2013-03-03 15:42:00,
2013-03-03 10:52:00,22.0,18.0,29.87,WNW,300,5.0,-999.0,85,-99.99,,,-99.99,,2013-03-03 15:52:00,
2013-03-03 11:02:00,22.0,18.0,29.87,West,281,4.0,-999.0,84,-99.99,,,-99.99,,2013-03-03 16:02:00,
2013-03-03 11:12:00,22.0,18.0,29.87,West,281,4.0,-999.0,84,-99.99,,,-99.99,,2013-03-03 16:12:00,
2013-03-03 11:22:00,22.0,17.0,29.87,West,277,7.0,-999.0,81,-99.99,,,-99.99,,2013-03-03 16:22:00,
2013-03-03 11:32:00,22.0,16.0,29.87,West,273,6.0,-999.0,79,-99.99,,,-99.99,,2013-03-03 16:32:00,
2013-03-03 11:42:00,22.0,16.0,29.87,West,273,6.0,-999.0,79,-99.99,,,-99.99,,2013-03-03 16:42:00,
2013-03-03 11:52:00,22.0,16.0,29.87,West,281,7.0,-999.0,78,-99.99,,,-99.99,,2013-03-03 16:52:00,
2013-03-03 12:01:00,22.0,16.0,29.87,NW,320,6.0,-999.0,79,-99.99,,,-99.99,,2013-03-03 17:01:00,
2013-03-03 12:11:00,22.0,16.0,29.87,West,278,7.0,-999.0,77,-99.99,,,-99.99,,2013-03-03 17:11:00,
2013-03-03 12:22:00,22.0,16.0,29.87,West,278,7.0,-999.0,77,-99.99,,,-99.99,,2013-03-03 17:22:00,
2013-03-03 12:32:00,22.0,16.0,29.86,West,279,7.0,-999.0,78,-99.99,,,-99.99,,2013-03-03 17:32:00,
2013-03-03 12:42:00,22.0,16.0,29.86,West,279,7.0,-999.0,78,-99.99,,,-99.99,,2013-03-03 17:42:00,
2013-03-03 12:52:00,22.0,16.0,29.86,WNW,295,7.0,-999.0,79,-99.99,,,-99.99,,2013-03-03 17:52:00,
2013-03-03 13:02:00,22.0,17.0,29.86,West,263,6.0,-999.0,81,-99.99,,,-99.99,,2013-03-03 18:02:00,
2013-03-03 13:11:00,22.0,17.0,29.86,West,263,6.0,-999.0,81,-99.99,,,-99.99,,2013-03-03 18:11:00,
2013-03-03 13:22:00,22.0,17.0,29.85,WNW,290,7.0,-999.0,81,-99.99,,,-99.99,,2013-03-03 18:22:00,
2013-03-03 13:32:00,22.0,17.0,29.85,WNW,290,7.0,-999.0,81,-99.99,,,-99.99,,2013-03-03 18:32:00,
2013-03-03 13:42:00,22.0,17.0,29.85,WNW,290,7.0,-999.0,81,-99.99,,,-99.99,,2013-03-03 18:42:00,
2013-03-03 13:52:00,22.0,17.0,29.85,WSW,252,6.0,-999.0,80,-99.99,,,-99.99,,2013-03-03 18:52:00,
2013-03-03 14:02:00,22.0,16.0,29.84,WNW,288,6.0,-999.0,78,-99.99,,,-99.99,,2013-03-03 19:02:00,
2013-03-03 14:11:00,22.0,16.0,29.84,WNW,288,6.0,-999.0,78,-99.99,,,-99.99,,2013-03-03 19:11:00,
2013-03-03 14:22:00,22.0,16.0,29.84,West,278,6.0,-999.0,79,-99.99,,,-99.99,,2013-03-03 19:22:00,
2013-03-03 14:32:00,23.0,16.0,29.84,West,276,7.0,-999.0,74,-99.99,,,-99.99,,2013-03-03 19:32:00,
2013-03-03 14:42:00,23.0,16.0,29.84,West,276,7.0,-999.0,74,-99.99,,,-99.99,,2013-03-03 19:42:00,
2013-03-03 14:52:00,23.0,15.0,29.84,West,269,7.0,-999.0,72,-99.99,,,-99.99,,2013-03-03 19:52:00,
2013-03-03 15:01:00,23.0,15.0,29.84,SW,236,7.0,-999.0,72,-99.99,,,-99.99,,2013-03-03 20:01:00,
2013-03-03 15:11:00,23.0,15.0,29.84,SW,236,7.0,-999.0,72,-99.99,,,-99.99,,2013-03-03 20:11:00,
2013-03-03 15:22:00,23.0,15.0,29.84,WSW,254,5.0,-999.0,72,-99.99,,,-99.99,,2013-03-03 20:22:00,
2013-03-03 15:32:00,23.0,17.0,29.85,WNW,294,6.0,-999.0,77,-99.99,,,-99.99,,2013-03-03 20:32:00,
2013-03-03 15:42:00,23.0,17.0,29.85,WNW,294,6.0,-999.0,77,-99.99,,,-99.99,,2013-03-03 20:42:00,
2013-03-03 15:52:00,23.0,16.0,29.85,West,260,6.0,-999.0,75,-99.99,,,-99.99,,2013-03-03 20:52:00,
2013-03-03 16:02:00,23.0,16.0,29.85,WNW,295,9.0,-999.0,75,-99.99,,,-99.99,,2013-03-03 21:02:00,
2013-03-03 16:12:00,23.0,16.0,29.85,WNW,295,9.0,-999.0,75,-99.99,,,-99.99,,2013-03-03 21:12:00,
2013-03-03 16:22:00,23.0,16.0,29.85,WSW,243,7.0,-999.0,74,-99.99,,,-99.99,,2013-03-03 21:22:00,
2013-03-03 16:32:00,23.0,17.0,29.85,West,271,7.0,-999.0,76,-99.99,,,-99.99,,2013-03-03 21:32:00,
2013-03-03 16:42:00,23.0,17.0,29.85,West,271,7.0,-999.0,76,-99.99,,,-99.99,,2013-03-03 21:42:00,
2013-03-03 16:52:00,22.0,16.0,29.85,West,264,6.0,-999.0,79,-99.99,,,-99.99,,2013-03-03 21:52:00,
2013-03-03 17:02:00,22.0,17.0,29.86,WSW,248,8.0,-999.0,81,-99.99,,,-99.99,,2013-03-03 22:02:00,
2013-03-03 17:11:00,22.0,17.0,29.86,WSW,248,8.0,-999.0,81,-99.99,,,-99.99,,2013-03-03 22:11:00,
2013-03-03 17:22:00,22.0,17.0,29.86,West,273,5.0,-999.0,81,-99.99,,,-99.99,,2013-03-03 22:22:00,
2013-03-03 17:32:00,22.0,17.0,29.86,SW,233,6.0,-999.0,82,-99.99,,,-99.99,,2013-03-03 22:32:00,
2013-03-03 17:42:00,22.0,17.0,29.86,SW,233,6.0,-999.0,82,-99.99,,,-99.99,,2013-03-03 22:42:00,
2013-03-03 17:52:00,22.0,18.0,29.86,West,277,5.0,-999.0,84,-99.99,,,-99.99,,2013-03-03 22:52:00,
2013-03-03 18:02:00,22.0,17.0,29.86,West,259,7.0,-999.0,82,-99.99,,,-99.99,,2013-03-03 23:02:00,
2013-03-03 18:11:00,22.0,17.0,29.86,West,259,7.0,-999.0,82,-99.99,,,-99.99,,2013-03-03 23:11:00,
2013-03-03 18:22:00,22.0,17.0,29.87,West,279,6.0,-999.0,82,-99.99,,,-99.99,,2013-03-03 23:22:00,
2013-03-03 18:32:00,22.0,18.0,29.87,West,261,6.0,-999.0,83,-99.99,,,-99.99,,2013-03-03 23:32:00,
2013-03-03 18:42:00,22.0,18.0,29.87,West,261,6.0,-999.0,83,-99.99,,,-99.99,,2013-03-03 23:42:00,
2013-03-03 18:52:00,22.0,18.0,29.87,WSW,257,5.0,-999.0,85,-99.99,,,-99.99,,2013-03-03 23:52:00,
2013-03-03 19:02:00,22.0,18.0,29.87,West,265,5.0,-999.0,85,-99.99,,,-99.99,,2013-03-04 00:02:00,
2013-03-03 19:11:00,22.0,18.0,29.87,West,265,5.0,-999.0,85,-99.99,,,-99.99,,2013-03-04 00:11:00,
2013-03-03 19:22:00,23.0,19.0,29.87,West,261,4.0,-999.0,86,-99.99,,,-99.99,,2013-03-04 00:22:00,
2013-03-03 19:32:00,23.0,19.0,29.87,WNW,286,4.0,-999.0,86,-99.99,,,-99.99,,2013-03-04 00:32:00,
2013-03-03 19:42:00,23.0,19.0,29.87,WNW,286,4.0,-999.0,86,-99.99,,,-99.99,,2013-03-04 00:42:00,
2013-03-03 19:52:00,23.0,20.0,29.87,West,279,6.0,-999.0,87,-99.99,,,-99.99,,2013-03-04 00:52:00,
2013-03-03 20:02:00,23.0,20.0,29.88,WSW,256,5.0,-999.0,87,-99.99,,,-99.99,,2013-03-04 01:02:00,
2013-03-03 20:12:00,23.0,20.0,29.88,WSW,256,5.0,-999.0,87,-99.99,,,-99.99,,2013-03-04 01:12:00,
2013-03-03 20:22:00,23.0,20.0,29.88,WSW,241,5.0,-999.0,88,-99.99,,,-99.99,,2013-03-04 01:22:00,
2013-03-03 20:32:00,23.0,20.0,29.88,West,262,4.0,-999.0,89,-99.99,,,-99.99,,2013-03-04 01:32:00,
2013-03-03 20:42:00,23.0,20.0,29.88,West,262,4.0,-999.0,89,-99.99,,,-99.99,,2013-03-04 01:42:00,
2013-03-03 20:52:00,23.0,20.0,29.88,West,265,4.0,-999.0,89,-99.99,,,-99.99,,2013-03-04 01:52:00,
2013-03-03 21:01:00,23.0,21.0,29.89,WSW,250,5.0,-999.0,90,-99.99,,,-99.99,,2013-03-04 02:01:00,
2013-03-03 21:11:00,23.0,21.0,29.89,WSW,250,5.0,-999.0,90,-99.99,,,-99.99,,2013-03-04 02:11:00,
2013-03-03 21:22:00,23.0,21.0,29.89,West,264,4.0,-999.0,91,-99.99,,,-99.99,,2013-03-04 02:22:00,
2013-03-03 21:32:00,23.0,21.0,29.89,WSW,256,5.0,-999.0,91,-99.99,,,-99.99,,2013-03-04 02:32:00,
2013-03-03 21:42:00,23.0,21.0,29.89,WSW,256,5.0,-999.0,91,-99.99,,,-99.99,,2013-03-04 02:42:00,
2013-03-03 21:52:00,23.0,21.0,29.89,West,277,4.0,-999.0,91,-99.99,,,-99.99,,2013-03-04 02:52:00,
2013-03-03 22:02:00,23.0,21.0,29.88,West,266,5.0,-999.0,91,-99.99,,,-99.99,,2013-03-04 03:02:00,
2013-03-03 22:11:00,23.0,21.0,29.88,West,266,5.0,-999.0,91,-99.99,,,-99.99,,2013-03-04 03:11:00,
2013-03-03 22:22:00,23.0,21.0,29.88,WNW,282,6.0,-999.0,90,-99.99,,,-99.99,,2013-03-04 03:22:00,
2013-03-03 22:32:00,23.0,20.0,29.88,WNW,290,6.0,-999.0,89,-99.99,,,-99.99,,2013-03-04 03:32:00,
2013-03-03 22:42:00,23.0,20.0,29.88,WSW,246,7.0,-999.0,87,-99.99,,,-99.99,,2013-03-04 03:42:00,
2013-03-03 22:52:00,23.0,20.0,29.88,WSW,246,7.0,-999.0,87,-99.99,,,-99.99,,2013-03-04 03:52:00,
2013-03-03 23:01:00,24.0,20.0,29.88,WNW,293,5.0,-999.0,86,-99.99,,,-99.99,,2013-03-04 04:01:00,
2013-03-03 23:11:00,24.0,20.0,29.88,WNW,293,5.0,-999.0,86,-99.99,,,-99.99,,2013-03-04 04:11:00,
2013-03-03 23:22:00,24.0,20.0,29.88,West,260,8.0,-999.0,84,-99.99,,,-99.99,,2013-03-04 04:22:00,
2013-03-03 23:32:00,24.0,20.0,29.88,West,260,8.0,-999.0,84,-99.99,,,-99.99,,2013-03-04 04:32:00,
2013-03-03 23:42:00,24.0,20.0,29.88,West,260,8.0,-999.0,84,-99.99,,,-99.99,,2013-03-04 04:42:00,
2013-03-03 23:52:00,23.0,19.0,29.87,West,263,5.0,-999.0,83,-99.99,,,-99.99,,2013-03-04 04:52:00,